Location: The Saddle
(36.8333°N, 80.3417°W)
Time: 10:00:22
(UTC-05:00)

Vanguard 2 - Visible Passes

Search period start: 02 December 2023 00:00
Search period end: 12 December 2023 00:00
Orbit: 553 x 2922 km, 32.9° (Epoch: 01 December)

Date Brightness Start Highest point End Pass type
(mag) Time Alt. Az. Time Alt. Az. Time Alt. Az.
02 Dec 9.8 04:47:29 14° S 04:47:29 14° S 04:48:36 10° S visible
02 Dec 11.4 18:03:37 10° SSE 18:10:42 14° SE 18:17:36 10° ESE visible
02 Dec 10.6 20:06:02 10° SSW 20:21:10 38° SSE 20:21:10 38° SSE visible
02 Dec 11.2 22:16:03 10° WSW 22:22:25 27° SW 22:22:25 27° SW visible
03 Dec 10.0 05:02:22 10° SSW 05:02:22 10° SSW 05:02:24 10° SSW visible
03 Dec 11.3 18:15:18 10° S 18:26:04 20° SE 18:34:46 13° ESE visible
03 Dec 10.5 20:20:40 10° SW 20:35:59 45° SSE 20:35:59 45° SSE visible
03 Dec 11.3 22:31:36 10° WSW 22:37:14 25° WSW 22:37:14 25° WSW visible
04 Dec 11.1 18:28:28 10° S 18:41:24 26° SE 18:49:34 18° ESE visible
04 Dec 10.4 20:35:36 10° SW 20:50:48 51° S 20:50:48 51° S visible
04 Dec 11.4 22:47:16 10° WSW 22:52:02 22° WSW 22:52:02 22° WSW visible
05 Dec 10.9 18:42:21 10° SSW 18:56:44 33° SE 19:04:20 24° ESE visible
05 Dec 10.3 20:50:46 10° SW 21:05:34 56° S 21:05:34 56° S visible
05 Dec 11.5 23:03:02 10° W 23:06:48 20° WSW 23:06:48 20° WSW visible
06 Dec 10.7 18:56:42 10° SSW 19:12:07 40° SSE 19:19:05 30° ESE visible
06 Dec 10.3 21:06:09 10° WSW 21:20:18 58° SSW 21:20:18 58° SSW visible
06 Dec 11.6 23:18:52 10° W 23:21:32 17° W 23:21:32 17° W visible
07 Dec 10.5 19:11:24 10° SW 19:27:32 48° SSE 19:33:47 37° ESE visible
07 Dec 10.4 21:21:41 10° WSW 21:35:01 56° SW 21:35:01 56° SW visible
07 Dec 11.7 23:34:43 10° W 23:36:14 14° W 23:36:14 14° W visible
08 Dec 11.2 17:19:53 10° S 17:32:10 27° SE 17:45:18 10° E visible
08 Dec 10.3 19:26:23 10° SW 19:43:01 55° SSE 19:48:28 44° ESE visible
08 Dec 10.5 21:37:20 10° WSW 21:49:41 52° WSW 21:49:41 52° WSW visible
08 Dec 11.9 23:50:35 10° W 23:50:55 11° W 23:50:55 11° W visible
09 Dec 11.0 17:33:52 10° SSW 17:47:20 34° SE 18:01:53 10° E visible
09 Dec 10.2 19:41:34 10° SW 19:58:35 62° SSE 20:03:06 51° ESE visible
09 Dec 10.7 21:53:05 10° W 22:04:19 47° WSW 22:04:19 47° WSW visible
10 Dec 10.9 17:48:18 10° SSW 18:02:33 41° SE 18:16:29 14° E visible
10 Dec 10.1 19:56:56 10° WSW 20:14:13 68° SSE 20:17:42 59° ESE visible
10 Dec 10.8 22:08:51 10° W 22:18:55 42° WSW 22:18:55 42° WSW visible
11 Dec 10.7 18:03:03 10° SW 18:17:52 49° SSE 18:31:04 18° E visible
11 Dec 10.1 20:12:26 10° WSW 20:29:55 73° SSE 20:32:17 67° SE visible
11 Dec 11.0 22:24:40 10° W 22:33:30 37° W 22:33:30 37° W visible
